Terug naar catalogus

CZ-6A DEB

ActiefSSO
NORAD 56259·DEBRIS·🇨🇳 China

Gelanceerd Nov 11, 2022 vanaf Taiyuan Satellite Launch Center

Loading…

Volgende Passages (komende 24 uur)

TLE

VersSource: Space-Track

Epoch: Sep 14, 2026, 06:27 UTC

1 56259U 22151ACB 26257.26895997  .00001721  00000-0  85388-3 0  9991
2 56259  98.8324 260.0662 0049512  78.7945 281.8790 14.17852695185722

Volg CZ-6A DEB in realtime met AllMySat

Download on the App Store